date,time,SUV Intensity [MED/Hr],UV Index,Daily total [MED],Since Last [MED]
01/01/2023,00:01:13,0.000,0.0,0.0,0.0
01/01/2023,00:02:13,0.001,0.0,0.0,0.0
01/01/2023,00:03:13,0.000,0.0,0.0,0.0
01/01/2023,00:04:13,0.000,0.0,0.0,0.0
01/01/2023,00:05:13,0.000,0.0,0.0,0.0
01/01/2023,00:06:13,0.001,0.0,0.0,0.0
01/01/2023,00:07:13,0.001,0.0,0.0,0.0
01/01/2023,00:08:13,0.000,0.0,0.0,0.0
01/01/2023,00:09:13,0.000,0.0,0.0,0.0
01/01/2023,00:10:13,0.000,0.0,0.0,0.0
01/01/2023,00:11:13,0.000,0.0,0.0,0.0
01/01/2023,00:12:13,0.000,0.0,0.0,0.0
01/01/2023,00:13:13,0.001,0.0,0.0,0.0
01/01/2023,00:14:13,-0.000,0.0,0.0,0.0
01/01/2023,00:15:13,-0.000,0.0,0.0,0.0
01/01/2023,00:16:13,0.000,0.0,0.0,0.0
01/01/2023,00:17:14,0.000,0.0,0.0,0.0
01/01/2023,00:18:13,0.000,0.0,0.0,0.0
01/01/2023,00:19:13,0.000,0.0,0.0,0.0
01/01/2023,00:20:13,0.001,0.0,0.0,0.0
01/01/2023,00:21:13,-0.001,0.0,0.0,0.0
01/01/2023,00:22:13,0.000,0.0,0.0,0.0
01/01/2023,00:23:13,-0.000,0.0,0.0,0.0
01/01/2023,00:24:13,0.000,0.0,0.0,0.0
01/01/2023,00:25:13,-0.001,0.0,0.0,0.0
01/01/2023,00:26:13,0.000,0.0,0.0,0.0
01/01/2023,00:27:13,0.000,0.0,0.0,0.0
01/01/2023,00:28:13,-0.001,0.0,0.0,0.0
01/01/2023,00:29:13,0.000,0.0,0.0,0.0
01/01/2023,00:30:13,0.000,0.0,0.0,0.0
01/01/2023,00:31:13,0.001,0.0,0.0,0.0
01/01/2023,00:32:13,0.001,0.0,0.0,0.0
01/01/2023,00:33:13,0.000,0.0,0.0,0.0
01/01/2023,00:34:13,0.000,0.0,0.0,0.0
01/01/2023,00:35:13,-0.002,0.0,0.0,0.0
01/01/2023,00:36:13,-0.000,0.0,0.0,0.0
01/01/2023,00:37:13,-0.000,0.0,0.0,0.0
01/01/2023,00:38:13,-0.000,0.0,0.0,0.0
01/01/2023,00:39:13,0.000,0.0,0.0,0.0
01/01/2023,00:40:13,0.000,0.0,0.0,0.0
01/01/2023,00:41:14,-0.000,0.0,0.0,0.0
01/01/2023,00:42:13,-0.002,0.0,0.0,0.0
01/01/2023,00:43:13,-0.001,0.0,0.0,0.0
01/01/2023,00:44:12,-0.000,0.0,0.0,0.0
01/01/2023,00:45:35,-0.001,0.0,0.0,0.0
01/01/2023,00:46:13,-0.001,0.0,0.0,0.0
01/01/2023,00:47:13,0.000,0.0,0.0,0.0
01/01/2023,00:48:13,-0.000,0.0,0.0,0.0
01/01/2023,00:49:13,-0.001,0.0,0.0,0.0
01/01/2023,00:50:13,-0.001,0.0,0.0,0.0
01/01/2023,00:51:13,-0.001,0.0,0.0,0.0
01/01/2023,00:52:13,0.000,0.0,0.0,0.0
01/01/2023,00:53:13,-0.000,0.0,0.0,0.0
01/01/2023,00:54:13,-0.000,0.0,0.0,0.0
01/01/2023,00:55:13,0.000,0.0,0.0,0.0
01/01/2023,00:56:13,0.000,0.0,0.0,0.0
01/01/2023,00:57:13,0.001,0.0,0.0,0.0
01/01/2023,00:58:13,0.000,0.0,0.0,0.0
01/01/2023,00:59:13,-0.000,0.0,0.0,0.0
01/01/2023,01:00:13,-0.000,0.0,0.0,0.0
01/01/2023,01:01:13,0.001,0.0,0.0,0.0
01/01/2023,01:02:13,-0.000,0.0,0.0,0.0
01/01/2023,01:03:13,-0.000,0.0,0.0,0.0
01/01/2023,01:04:14,-0.001,0.0,0.0,0.0
01/01/2023,01:05:13,-0.001,0.0,0.0,0.0
01/01/2023,01:06:13,-0.000,0.0,0.0,0.0
01/01/2023,01:07:13,-0.000,0.0,0.0,0.0
01/01/2023,01:08:13,-0.001,0.0,0.0,0.0
01/01/2023,01:09:13,-0.001,0.0,0.0,0.0
01/01/2023,01:10:13,0.000,0.0,0.0,0.0
01/01/2023,01:11:13,0.000,0.0,0.0,0.0
01/01/2023,01:12:13,-0.001,0.0,0.0,0.0
01/01/2023,01:13:13,-0.000,0.0,0.0,0.0
01/01/2023,01:14:13,-0.000,0.0,0.0,0.0
01/01/2023,01:15:13,-0.000,0.0,0.0,0.0
01/01/2023,01:16:13,-0.001,0.0,0.0,0.0
01/01/2023,01:17:13,-0.002,0.0,0.0,0.0
01/01/2023,01:18:13,-0.001,0.0,0.0,0.0
01/01/2023,01:19:13,0.001,0.0,0.0,0.0
01/01/2023,01:20:13,-0.000,0.0,0.0,0.0
01/01/2023,01:21:13,-0.002,0.0,0.0,0.0
01/01/2023,01:22:13,-0.001,0.0,0.0,0.0
01/01/2023,01:23:13,-0.000,0.0,0.0,0.0
01/01/2023,01:24:13,0.000,0.0,0.0,0.0
01/01/2023,01:25:13,-0.000,0.0,0.0,0.0
01/01/2023,01:26:13,-0.001,0.0,0.0,0.0
01/01/2023,01:27:13,-0.000,0.0,0.0,0.0
01/01/2023,01:28:14,-0.001,0.0,0.0,0.0
01/01/2023,01:29:13,-0.001,0.0,0.0,0.0
01/01/2023,01:30:14,0.001,0.0,0.0,0.0
01/01/2023,01:31:14,-0.000,0.0,0.0,0.0
01/01/2023,01:32:13,-0.001,0.0,0.0,0.0
01/01/2023,01:33:13,-0.002,0.0,0.0,0.0
01/01/2023,01:34:13,-0.001,0.0,0.0,0.0
01/01/2023,01:35:13,0.001,0.0,0.0,0.0
01/01/2023,01:36:13,-0.001,0.0,0.0,0.0
01/01/2023,01:37:13,-0.000,0.0,0.0,0.0
01/01/2023,01:38:13,-0.000,0.0,0.0,0.0
01/01/2023,01:39:13,-0.000,0.0,0.0,0.0
01/01/2023,01:40:13,-0.000,0.0,0.0,0.0
01/01/2023,01:41:13,-0.000,0.0,0.0,0.0
01/01/2023,01:42:14,-0.000,0.0,0.0,0.0
01/01/2023,01:43:13,-0.001,0.0,0.0,0.0
01/01/2023,01:44:14,0.001,0.0,0.0,0.0
01/01/2023,01:45:13,-0.000,0.0,0.0,0.0
01/01/2023,01:46:13,0.000,0.0,0.0,0.0
01/01/2023,01:47:14,-0.001,0.0,0.0,0.0
01/01/2023,01:48:13,-0.000,0.0,0.0,0.0
01/01/2023,01:49:13,-0.001,0.0,0.0,0.0
01/01/2023,01:50:13,-0.000,0.0,0.0,0.0
01/01/2023,01:51:13,0.000,0.0,0.0,0.0
01/01/2023,01:52:13,-0.000,0.0,0.0,0.0
01/01/2023,01:53:13,0.000,0.0,0.0,0.0
01/01/2023,01:54:13,-0.000,0.0,0.0,0.0
01/01/2023,01:55:13,-0.001,0.0,0.0,0.0
01/01/2023,01:56:14,-0.000,0.0,0.0,0.0
01/01/2023,01:57:14,-0.001,0.0,0.0,0.0
01/01/2023,01:58:13,-0.000,0.0,0.0,0.0
01/01/2023,01:59:13,-0.001,0.0,0.0,0.0
01/01/2023,02:00:14,-0.000,0.0,0.0,0.0
01/01/2023,02:01:13,-0.001,0.0,0.0,0.0
01/01/2023,02:02:13,-0.000,0.0,0.0,0.0
01/01/2023,02:03:14,-0.000,0.0,0.0,0.0
01/01/2023,02:04:13,-0.001,0.0,0.0,0.0
01/01/2023,02:05:14,-0.001,0.0,0.0,0.0
01/01/2023,02:06:14,0.001,0.0,0.0,0.0
01/01/2023,02:07:14,-0.000,0.0,0.0,0.0
01/01/2023,02:08:13,-0.000,0.0,0.0,0.0
01/01/2023,02:09:14,-0.000,0.0,0.0,0.0
01/01/2023,02:10:13,-0.000,0.0,0.0,0.0
01/01/2023,02:11:13,-0.001,0.0,0.0,0.0
01/01/2023,02:12:13,-0.001,0.0,0.0,0.0
01/01/2023,02:13:13,0.001,0.0,0.0,0.0
01/01/2023,02:14:13,-0.000,0.0,0.0,0.0
01/01/2023,02:15:13,-0.000,0.0,0.0,0.0
01/01/2023,02:16:14,-0.000,0.0,0.0,0.0
01/01/2023,02:17:14,-0.000,0.0,0.0,0.0
01/01/2023,02:18:13,0.000,0.0,0.0,0.0
01/01/2023,02:19:13,-0.000,0.0,0.0,0.0
01/01/2023,02:20:13,-0.001,0.0,0.0,0.0
01/01/2023,02:21:13,0.000,0.0,0.0,0.0
01/01/2023,02:22:13,-0.000,0.0,0.0,0.0
01/01/2023,02:23:13,-0.001,0.0,0.0,0.0
01/01/2023,02:24:13,0.000,0.0,0.0,0.0
01/01/2023,02:25:14,0.000,0.0,0.0,0.0
01/01/2023,02:26:14,0.001,0.0,0.0,0.0
01/01/2023,02:27:14,0.001,0.0,0.0,0.0
01/01/2023,02:28:13,-0.001,0.0,0.0,0.0
01/01/2023,02:29:14,0.001,0.0,0.0,0.0
01/01/2023,02:30:13,-0.001,0.0,0.0,0.0
01/01/2023,02:31:13,-0.000,0.0,0.0,0.0
01/01/2023,02:32:14,-0.000,0.0,0.0,0.0
01/01/2023,02:33:13,-0.000,0.0,0.0,0.0
01/01/2023,02:34:13,0.001,0.0,0.0,0.0
01/01/2023,02:35:13,-0.000,0.0,0.0,0.0
01/01/2023,02:36:13,0.000,0.0,0.0,0.0
01/01/2023,02:37:13,-0.000,0.0,0.0,0.0
01/01/2023,02:38:13,-0.001,0.0,0.0,0.0
01/01/2023,02:39:13,0.000,0.0,0.0,0.0
01/01/2023,02:40:13,0.001,0.0,0.0,0.0
01/01/2023,02:41:13,0.001,0.0,0.0,0.0
01/01/2023,02:42:13,0.000,0.0,0.0,0.0
01/01/2023,02:43:14,-0.001,0.0,0.0,0.0
01/01/2023,02:44:13,0.000,0.0,0.0,0.0
01/01/2023,02:45:13,0.000,0.0,0.0,0.0
01/01/2023,02:46:14,0.000,0.0,0.0,0.0
01/01/2023,02:47:13,0.001,0.0,0.0,0.0
01/01/2023,02:48:13,0.000,0.0,0.0,0.0
01/01/2023,02:49:13,0.000,0.0,0.0,0.0
01/01/2023,02:50:13,0.000,0.0,0.0,0.0
01/01/2023,02:51:14,-0.000,0.0,0.0,0.0
01/01/2023,02:52:14,-0.000,0.0,0.0,0.0
01/01/2023,02:53:14,0.001,0.0,0.0,0.0
01/01/2023,02:54:13,0.001,0.0,0.0,0.0
01/01/2023,02:55:14,0.000,0.0,0.0,0.0
01/01/2023,02:56:13,0.001,0.0,0.0,0.0
01/01/2023,02:57:13,0.000,0.0,0.0,0.0
01/01/2023,02:58:13,-0.001,0.0,0.0,0.0
01/01/2023,02:59:13,-0.001,0.0,0.0,0.0
01/01/2023,03:00:13,0.000,0.0,0.0,0.0
01/01/2023,03:01:13,-0.000,0.0,0.0,0.0
01/01/2023,03:02:13,0.000,0.0,0.0,0.0
01/01/2023,03:03:13,-0.001,0.0,0.0,0.0
01/01/2023,03:04:14,-0.000,0.0,0.0,0.0
01/01/2023,03:05:13,0.000,0.0,0.0,0.0
01/01/2023,03:06:13,0.000,0.0,0.0,0.0
01/01/2023,03:07:14,0.000,0.0,0.0,0.0
01/01/2023,03:08:13,-0.000,0.0,0.0,0.0
01/01/2023,03:09:13,0.000,0.0,0.0,0.0
01/01/2023,03:10:14,0.000,0.0,0.0,0.0
01/01/2023,03:11:13,-0.001,0.0,0.0,0.0
01/01/2023,03:12:14,0.000,0.0,0.0,0.0
01/01/2023,03:13:13,-0.000,0.0,0.0,0.0
01/01/2023,03:14:14,0.001,0.0,0.0,0.0
01/01/2023,03:15:13,0.000,0.0,0.0,0.0
01/01/2023,03:16:14,0.000,0.0,0.0,0.0
01/01/2023,03:17:14,-0.001,0.0,0.0,0.0
01/01/2023,03:18:14,0.000,0.0,0.0,0.0
01/01/2023,03:19:14,0.001,0.0,0.0,0.0
01/01/2023,03:20:13,0.000,0.0,0.0,0.0
01/01/2023,03:21:13,0.000,0.0,0.0,0.0
01/01/2023,03:22:13,0.000,0.0,0.0,0.0
01/01/2023,03:23:13,0.000,0.0,0.0,0.0
01/01/2023,03:24:14,0.000,0.0,0.0,0.0
01/01/2023,03:25:13,0.001,0.0,0.0,0.0
01/01/2023,03:26:14,-0.000,0.0,0.0,0.0
01/01/2023,03:27:13,0.000,0.0,0.0,0.0
01/01/2023,03:28:13,0.000,0.0,0.0,0.0
01/01/2023,03:29:13,-0.000,0.0,0.0,0.0
01/01/2023,03:30:13,-0.001,0.0,0.0,0.0
01/01/2023,03:31:15,-0.000,0.0,0.0,0.0
01/01/2023,03:32:13,0.000,0.0,0.0,0.0
01/01/2023,03:33:13,-0.001,0.0,0.0,0.0
01/01/2023,03:34:13,0.000,0.0,0.0,0.0
01/01/2023,03:35:14,0.000,0.0,0.0,0.0
01/01/2023,03:36:13,0.001,0.0,0.0,0.0
01/01/2023,03:37:14,0.000,0.0,0.0,0.0
01/01/2023,03:38:13,0.000,0.0,0.0,0.0
01/01/2023,03:39:13,0.000,0.0,0.0,0.0
01/01/2023,03:40:14,-0.000,0.0,0.0,0.0
01/01/2023,03:41:13,0.001,0.0,0.0,0.0
01/01/2023,03:42:14,0.000,0.0,0.0,0.0
01/01/2023,03:43:14,0.000,0.0,0.0,0.0
01/01/2023,03:44:14,0.000,0.0,0.0,0.0
01/01/2023,03:45:13,-0.001,0.0,0.0,0.0
01/01/2023,03:46:13,0.000,0.0,0.0,0.0
01/01/2023,03:47:13,0.000,0.0,0.0,0.0
01/01/2023,03:48:15,0.000,0.0,0.0,0.0
01/01/2023,03:49:13,0.000,0.0,0.0,0.0
01/01/2023,03:50:13,0.000,0.0,0.0,0.0
01/01/2023,03:51:14,0.000,0.0,0.0,0.0
01/01/2023,03:52:13,0.001,0.0,0.0,0.0
01/01/2023,03:53:14,-0.001,0.0,0.0,0.0
01/01/2023,03:54:13,0.001,0.0,0.0,0.0
01/01/2023,03:55:13,-0.000,0.0,0.0,0.0
01/01/2023,03:56:13,0.000,0.0,0.0,0.0
01/01/2023,03:57:13,0.000,0.0,0.0,0.0
01/01/2023,03:58:13,0.000,0.0,0.0,0.0
01/01/2023,03:59:14,0.000,0.0,0.0,0.0
01/01/2023,04:00:13,0.000,0.0,0.0,0.0
01/01/2023,04:01:13,-0.001,0.0,0.0,0.0
01/01/2023,04:02:13,0.000,0.0,0.0,0.0
01/01/2023,04:03:14,-0.001,0.0,0.0,0.0
01/01/2023,04:04:13,0.001,0.0,0.0,0.0
01/01/2023,04:05:13,-0.001,0.0,0.0,0.0
01/01/2023,04:06:14,0.000,0.0,0.0,0.0
01/01/2023,04:07:13,-0.000,0.0,0.0,0.0
01/01/2023,04:08:13,0.000,0.0,0.0,0.0
01/01/2023,04:09:13,0.000,0.0,0.0,0.0
01/01/2023,04:10:14,0.000,0.0,0.0,0.0
01/01/2023,04:11:14,0.000,0.0,0.0,0.0
01/01/2023,04:12:14,0.000,0.0,0.0,0.0
01/01/2023,04:13:13,-0.001,0.0,0.0,0.0
01/01/2023,04:14:13,-0.000,0.0,0.0,0.0
01/01/2023,04:15:14,0.000,0.0,0.0,0.0
01/01/2023,04:16:13,0.000,0.0,0.0,0.0
01/01/2023,04:17:13,0.000,0.0,0.0,0.0
01/01/2023,04:18:13,-0.000,0.0,0.0,0.0
01/01/2023,04:19:13,-0.001,0.0,0.0,0.0
01/01/2023,04:20:13,0.001,0.0,0.0,0.0
01/01/2023,04:21:13,-0.000,0.0,0.0,0.0
01/01/2023,04:22:14,0.000,0.0,0.0,0.0
01/01/2023,04:23:13,-0.000,0.0,0.0,0.0
01/01/2023,04:24:14,0.000,0.0,0.0,0.0
01/01/2023,04:25:13,0.000,0.0,0.0,0.0
01/01/2023,04:26:13,0.000,0.0,0.0,0.0
01/01/2023,04:27:13,-0.001,0.0,0.0,0.0
01/01/2023,04:28:13,-0.000,0.0,0.0,0.0
01/01/2023,04:29:14,0.000,0.0,0.0,0.0
01/01/2023,04:30:13,0.000,0.0,0.0,0.0
01/01/2023,04:31:13,0.000,0.0,0.0,0.0
01/01/2023,04:32:17,0.001,0.0,0.0,0.0
01/01/2023,04:33:14,-0.001,0.0,0.0,0.0
01/01/2023,04:34:13,-0.000,0.0,0.0,0.0
01/01/2023,04:35:14,0.000,0.0,0.0,0.0
01/01/2023,04:36:14,0.000,0.0,0.0,0.0
01/01/2023,04:37:13,-0.000,0.0,0.0,0.0
01/01/2023,04:38:13,-0.001,0.0,0.0,0.0
01/01/2023,04:39:13,0.000,0.0,0.0,0.0
01/01/2023,04:40:13,0.001,0.0,0.0,0.0
01/01/2023,04:41:13,-0.001,0.0,0.0,0.0
01/01/2023,04:42:13,-0.001,0.0,0.0,0.0
01/01/2023,04:43:13,-0.001,0.0,0.0,0.0
01/01/2023,04:44:13,0.000,0.0,0.0,0.0
01/01/2023,04:45:13,0.000,0.0,0.0,0.0
01/01/2023,04:46:13,0.001,0.0,0.0,0.0
01/01/2023,04:47:14,-0.000,0.0,0.0,0.0
01/01/2023,04:48:14,-0.000,0.0,0.0,0.0
01/01/2023,04:49:14,-0.001,0.0,0.0,0.0
01/01/2023,04:50:13,-0.001,0.0,0.0,0.0
01/01/2023,04:51:13,0.000,0.0,0.0,0.0
01/01/2023,04:52:13,-0.000,0.0,0.0,0.0
01/01/2023,04:53:13,-0.000,0.0,0.0,0.0
01/01/2023,04:54:14,0.000,0.0,0.0,0.0
01/01/2023,04:55:13,-0.000,0.0,0.0,0.0
01/01/2023,04:56:13,-0.001,0.0,0.0,0.0
01/01/2023,04:57:13,-0.001,0.0,0.0,0.0
01/01/2023,04:58:14,0.000,0.0,0.0,0.0
01/01/2023,04:59:13,-0.001,0.0,0.0,0.0
01/01/2023,05:00:13,0.000,0.0,0.0,0.0
01/01/2023,05:01:14,0.000,0.0,0.0,0.0
01/01/2023,05:02:13,0.000,0.0,0.0,0.0
01/01/2023,05:03:14,0.000,0.0,0.0,0.0
01/01/2023,05:04:13,0.000,0.0,0.0,0.0
01/01/2023,05:05:13,0.000,0.0,0.0,0.0
01/01/2023,05:06:13,0.000,0.0,0.0,0.0
01/01/2023,05:07:14,0.000,0.0,0.0,0.0
01/01/2023,05:08:14,0.000,0.0,0.0,0.0
01/01/2023,05:09:14,0.000,0.0,0.0,0.0
01/01/2023,05:10:14,0.000,0.0,0.0,0.0
01/01/2023,05:11:13,0.000,0.0,0.0,0.0
01/01/2023,05:12:14,-0.000,0.0,0.0,0.0
01/01/2023,05:13:13,0.000,0.0,0.0,0.0
01/01/2023,05:14:14,-0.001,0.0,0.0,0.0
01/01/2023,05:15:13,0.000,0.0,0.0,0.0
01/01/2023,05:16:14,-0.001,0.0,0.0,0.0
01/01/2023,05:17:13,0.000,0.0,0.0,0.0
01/01/2023,05:18:13,-0.000,0.0,0.0,0.0
01/01/2023,05:19:13,0.000,0.0,0.0,0.0
01/01/2023,05:20:13,0.000,0.0,0.0,0.0
01/01/2023,05:21:14,0.000,0.0,0.0,0.0
01/01/2023,05:22:14,0.000,0.0,0.0,0.0
01/01/2023,05:23:14,-0.000,0.0,0.0,0.0
01/01/2023,05:24:13,0.000,0.0,0.0,0.0
01/01/2023,05:25:14,0.000,0.0,0.0,0.0
01/01/2023,05:26:13,-0.000,0.0,0.0,0.0
01/01/2023,05:27:13,-0.001,0.0,0.0,0.0
01/01/2023,05:28:14,0.000,0.0,0.0,0.0
01/01/2023,05:29:13,-0.001,0.0,0.0,0.0
01/01/2023,05:30:13,0.000,0.0,0.0,0.0
01/01/2023,05:31:14,-0.000,0.0,0.0,0.0
01/01/2023,05:32:13,0.000,0.0,0.0,0.0
01/01/2023,05:33:13,-0.000,0.0,0.0,0.0
01/01/2023,05:34:14,0.001,0.0,0.0,0.0
01/01/2023,05:35:13,-0.000,0.0,0.0,0.0
01/01/2023,05:36:14,-0.001,0.0,0.0,0.0
01/01/2023,05:37:13,0.000,0.0,0.0,0.0
01/01/2023,05:38:13,0.000,0.0,0.0,0.0
01/01/2023,05:39:14,0.000,0.0,0.0,0.0
01/01/2023,05:40:13,0.001,0.0,0.0,0.0
01/01/2023,05:41:14,0.000,0.0,0.0,0.0
01/01/2023,05:42:14,0.000,0.0,0.0,0.0
01/01/2023,05:43:14,0.000,0.0,0.0,0.0
01/01/2023,05:44:13,-0.001,0.0,0.0,0.0
01/01/2023,05:45:14,0.000,0.0,0.0,0.0
01/01/2023,05:46:14,-0.001,0.0,0.0,0.0
01/01/2023,05:47:13,0.000,0.0,0.0,0.0
01/01/2023,05:48:13,0.000,0.0,0.0,0.0
01/01/2023,05:49:36,0.001,0.0,0.0,0.0
01/01/2023,05:50:13,0.001,0.0,0.0,0.0
01/01/2023,05:51:14,0.000,0.0,0.0,0.0
01/01/2023,05:52:14,0.001,0.0,0.0,0.0
01/01/2023,05:53:14,0.000,0.0,0.0,0.0
01/01/2023,05:54:13,0.000,0.0,0.0,0.0
01/01/2023,05:55:13,0.001,0.0,0.0,0.0
01/01/2023,05:56:14,0.000,0.0,0.0,0.0
01/01/2023,05:57:13,-0.001,0.0,0.0,0.0
01/01/2023,05:58:14,0.000,0.0,0.0,0.0
01/01/2023,05:59:15,0.000,0.0,0.0,0.0
01/01/2023,06:00:14,0.000,0.0,0.0,0.0
01/01/2023,06:01:13,0.000,0.0,0.0,0.0
01/01/2023,06:02:14,0.000,0.0,0.0,0.0
01/01/2023,06:03:14,0.000,0.0,0.0,0.0
01/01/2023,06:04:13,-0.000,0.0,0.0,0.0
01/01/2023,06:05:13,0.000,0.0,0.0,0.0
01/01/2023,06:06:13,0.000,0.0,0.0,0.0
01/01/2023,06:07:14,0.000,0.0,0.0,0.0
01/01/2023,06:08:13,0.000,0.0,0.0,0.0
01/01/2023,06:09:13,-0.000,0.0,0.0,0.0
01/01/2023,06:10:14,0.000,0.0,0.0,0.0
01/01/2023,06:11:13,-0.001,0.0,0.0,0.0
01/01/2023,06:12:14,0.000,0.0,0.0,0.0
01/01/2023,06:13:13,-0.001,0.0,0.0,0.0
01/01/2023,06:14:14,0.001,0.0,0.0,0.0
01/01/2023,06:15:13,0.001,0.0,0.0,0.0
01/01/2023,06:16:13,0.000,0.0,0.0,0.0
01/01/2023,06:17:14,0.001,0.0,0.0,0.0
01/01/2023,06:18:13,0.000,0.0,0.0,0.0
01/01/2023,06:19:13,0.000,0.0,0.0,0.0
01/01/2023,06:20:14,-0.000,0.0,0.0,0.0
01/01/2023,06:21:14,0.001,0.0,0.0,0.0
01/01/2023,06:22:14,0.001,0.0,0.0,0.0
01/01/2023,06:23:14,0.001,0.0,0.0,0.0
01/01/2023,06:24:14,0.001,0.0,0.0,0.0
01/01/2023,06:25:13,0.000,0.0,0.0,0.0
01/01/2023,06:26:13,-0.000,0.0,0.0,0.0
01/01/2023,06:27:14,-0.001,0.0,0.0,0.0
01/01/2023,06:28:13,0.000,0.0,0.0,0.0
01/01/2023,06:29:13,0.000,0.0,0.0,0.0
01/01/2023,06:30:14,0.001,0.0,0.0,0.0
01/01/2023,06:31:13,0.000,0.0,0.0,0.0
01/01/2023,06:32:14,0.001,0.0,0.0,0.0
01/01/2023,06:33:13,0.000,0.0,0.0,0.0
01/01/2023,06:34:14,0.000,0.0,0.0,0.0
01/01/2023,06:35:14,0.000,0.0,0.0,0.0
01/01/2023,06:36:14,0.000,0.0,0.0,0.0
01/01/2023,06:37:14,0.000,0.0,0.0,0.0
01/01/2023,06:38:13,0.000,0.0,0.0,0.0
01/01/2023,06:39:13,0.001,0.0,0.0,0.0
01/01/2023,06:40:14,0.000,0.0,0.0,0.0
01/01/2023,06:41:13,0.000,0.0,0.0,0.0
01/01/2023,06:42:13,-0.001,0.0,0.0,0.0
01/01/2023,06:43:14,0.000,0.0,0.0,0.0
01/01/2023,06:44:14,0.000,0.0,0.0,0.0
01/01/2023,06:45:14,0.000,0.0,0.0,0.0
01/01/2023,06:46:14,0.000,0.0,0.0,0.0
01/01/2023,06:47:14,-0.001,0.0,0.0,0.0
01/01/2023,06:48:14,0.001,0.0,0.0,0.0
01/01/2023,06:49:14,-0.000,0.0,0.0,0.0
01/01/2023,06:50:14,0.000,0.0,0.0,0.0
01/01/2023,06:51:14,0.000,0.0,0.0,0.0
01/01/2023,06:52:14,0.000,0.0,0.0,0.0
01/01/2023,06:53:14,0.001,0.0,0.0,0.0
01/01/2023,06:54:14,-0.000,0.0,0.0,0.0
01/01/2023,06:55:14,0.000,0.0,0.0,0.0
01/01/2023,06:56:13,-0.001,0.0,0.0,0.0
01/01/2023,06:57:13,0.000,0.0,0.0,0.0
01/01/2023,06:58:14,0.001,0.0,0.0,0.0
01/01/2023,06:59:14,0.000,0.0,0.0,0.0
01/01/2023,07:00:14,-0.000,0.0,0.0,0.0
01/01/2023,07:01:14,-0.000,0.0,0.0,0.0
01/01/2023,07:02:13,0.001,0.0,0.0,0.0
01/01/2023,07:03:14,-0.001,0.0,0.0,0.0
01/01/2023,07:04:14,-0.000,0.0,0.0,0.0
01/01/2023,07:05:13,-0.000,0.0,0.0,0.0
01/01/2023,07:06:14,-0.001,0.0,0.0,0.0
01/01/2023,07:07:13,0.000,0.0,0.0,0.0
01/01/2023,07:08:13,0.000,0.0,0.0,0.0
01/01/2023,07:09:14,0.000,0.0,0.0,0.0
01/01/2023,07:10:13,-0.000,0.0,0.0,0.0
01/01/2023,07:11:14,0.000,0.0,0.0,0.0
01/01/2023,07:12:14,-0.000,0.0,0.0,0.0
01/01/2023,07:13:14,0.000,0.0,0.0,0.0
01/01/2023,07:14:14,0.000,0.0,0.0,0.0
01/01/2023,07:15:13,0.000,0.0,0.0,0.0
01/01/2023,07:16:14,0.001,0.0,0.0,0.0
01/01/2023,07:17:13,0.000,0.0,0.0,0.0
01/01/2023,07:18:14,0.000,0.0,0.0,0.0
01/01/2023,07:19:13,-0.000,0.0,0.0,0.0
01/01/2023,07:20:14,0.000,0.0,0.0,0.0
01/01/2023,07:21:14,0.000,0.0,0.0,0.0
01/01/2023,07:22:14,0.000,0.0,0.0,0.0
01/01/2023,07:23:14,0.001,0.0,0.0,0.0
01/01/2023,07:24:14,-0.001,0.0,0.0,0.0
01/01/2023,07:25:14,0.001,0.0,0.0,0.0
01/01/2023,07:26:14,-0.001,0.0,0.0,0.0
01/01/2023,07:27:14,0.001,0.0,0.0,0.0
01/01/2023,07:28:14,0.000,0.0,0.0,0.0
01/01/2023,07:29:14,0.000,0.0,0.0,0.0
01/01/2023,07:30:14,-0.001,0.0,0.0,0.0
01/01/2023,07:31:14,0.000,0.0,0.0,0.0
01/01/2023,07:32:14,0.001,0.0,0.0,0.0
01/01/2023,07:33:13,-0.001,0.0,0.0,0.0
01/01/2023,07:34:14,0.000,0.0,0.0,0.0
01/01/2023,07:35:14,0.001,0.0,0.0,0.0
01/01/2023,07:36:14,0.000,0.0,0.0,0.0
01/01/2023,07:37:13,-0.001,0.0,0.0,0.0
01/01/2023,07:38:14,0.000,0.0,0.0,0.0
01/01/2023,07:39:14,-0.000,0.0,0.0,0.0
01/01/2023,07:40:14,0.000,0.0,0.0,0.0
01/01/2023,07:41:14,0.001,0.0,0.0,0.0
01/01/2023,07:42:14,0.000,0.0,0.0,0.0
01/01/2023,07:43:13,0.000,0.0,0.0,0.0
01/01/2023,07:44:14,0.001,0.0,0.0,0.0
01/01/2023,07:45:14,-0.000,0.0,0.0,0.0
01/01/2023,07:46:14,0.000,0.0,0.0,0.0
01/01/2023,07:47:13,0.001,0.0,0.0,0.0
01/01/2023,07:48:13,0.001,0.0,0.0,0.0
01/01/2023,07:49:13,0.001,0.0,0.0,0.0
01/01/2023,07:50:13,0.001,0.0,0.0,0.0
01/01/2023,07:51:14,0.000,0.0,0.0,0.0
01/01/2023,07:52:13,0.000,0.0,0.0,0.0
01/01/2023,07:53:14,0.000,0.0,0.0,0.0
01/01/2023,07:54:14,0.000,0.0,0.0,0.0
01/01/2023,07:55:14,-0.001,0.0,0.0,0.0
01/01/2023,07:56:13,0.001,0.0,0.0,0.0
01/01/2023,07:57:15,0.001,0.0,0.0,0.0
01/01/2023,07:58:13,-0.000,0.0,0.0,0.0
01/01/2023,07:59:14,-0.000,0.0,0.0,0.0
01/01/2023,08:00:14,0.000,0.0,0.0,0.0
01/01/2023,08:01:13,0.001,0.0,0.0,0.0
01/01/2023,08:02:14,0.001,0.0,0.0,0.0
01/01/2023,08:03:14,0.001,0.0,0.0,0.0
01/01/2023,08:04:13,0.001,0.0,0.0,0.0
01/01/2023,08:05:13,0.001,0.0,0.0,0.0
01/01/2023,08:06:14,0.001,0.0,0.0,0.0
01/01/2023,08:07:14,0.001,0.0,0.0,0.0
01/01/2023,08:08:13,0.001,0.0,0.0,0.0
01/01/2023,08:09:14,0.001,0.0,0.0,0.0
01/01/2023,08:10:13,0.002,0.0,0.0,0.0
01/01/2023,08:11:14,0.001,0.0,0.0,0.0
01/01/2023,08:12:14,0.003,0.0,0.0,0.0
01/01/2023,08:13:14,0.002,0.0,0.0,0.0
01/01/2023,08:14:14,0.002,0.0,0.0,0.0
01/01/2023,08:15:14,0.002,0.0,0.0,0.0
01/01/2023,08:16:14,0.003,0.0,0.0,0.0
01/01/2023,08:17:13,0.002,0.0,0.0,0.0
01/01/2023,08:18:14,0.003,0.0,0.0,0.0
01/01/2023,08:19:14,0.004,0.0,0.0,0.0
01/01/2023,08:20:14,0.004,0.0,0.0,0.0
01/01/2023,08:21:14,0.003,0.0,0.0,0.0
01/01/2023,08:22:14,0.004,0.0,0.0,0.0
01/01/2023,08:23:13,0.004,0.0,0.0,0.0
01/01/2023,08:24:14,0.004,0.0,0.0,0.0
01/01/2023,08:25:13,0.004,0.0,0.0,0.0
01/01/2023,08:26:14,0.005,0.0,0.0,0.0
01/01/2023,08:27:13,0.005,0.0,0.0,0.0
01/01/2023,08:28:14,0.005,0.0,0.0,0.0
01/01/2023,08:29:13,0.005,0.0,0.0,0.0
01/01/2023,08:30:14,0.006,0.0,0.0,0.0
01/01/2023,08:31:14,0.006,0.0,0.0,0.0
01/01/2023,08:32:14,0.006,0.0,0.0,0.0
01/01/2023,08:33:14,0.006,0.0,0.0,0.0
01/01/2023,08:34:14,0.006,0.0,0.0,0.0
01/01/2023,08:35:14,0.008,0.0,0.0,0.0
01/01/2023,08:36:14,0.006,0.0,0.0,0.0
01/01/2023,08:37:14,0.007,0.0,0.0,0.0
01/01/2023,08:38:13,0.007,0.0,0.001,0.001
01/01/2023,08:39:14,0.007,0.0,0.001,0.0
01/01/2023,08:40:14,0.008,0.0,0.001,0.0
01/01/2023,08:41:14,0.008,0.0,0.001,0.0
01/01/2023,08:42:13,0.009,0.0,0.001,0.0
01/01/2023,08:43:14,0.009,0.0,0.001,0.0
01/01/2023,08:44:14,0.008,0.0,0.001,0.0
01/01/2023,08:45:14,0.010,0.0,0.002,0.001
01/01/2023,08:46:14,0.010,0.0,0.002,0.0
01/01/2023,08:47:14,0.010,0.0,0.002,0.0
01/01/2023,08:48:14,0.010,0.0,0.002,0.0
01/01/2023,08:49:14,0.011,0.0,0.002,0.0
01/01/2023,08:50:14,0.013,0.0,0.002,0.0
01/01/2023,08:51:14,0.012,0.0,0.003,0.001
01/01/2023,08:52:14,0.012,0.0,0.003,0.0
01/01/2023,08:53:13,0.013,0.0,0.003,0.0
01/01/2023,08:54:14,0.013,0.0,0.003,0.0
01/01/2023,08:55:14,0.014,0.0,0.004,0.001
01/01/2023,08:56:15,0.014,0.0,0.004,0.0
01/01/2023,08:57:14,0.014,0.0,0.004,0.0
01/01/2023,08:58:14,0.015,0.0,0.004,0.0
01/01/2023,08:59:14,0.015,0.0,0.004,0.0
01/01/2023,09:00:14,0.014,0.0,0.005,0.001
01/01/2023,09:01:14,0.016,0.0,0.005,0.0
01/01/2023,09:02:13,0.015,0.0,0.005,0.0
01/01/2023,09:03:14,0.017,0.0,0.006,0.001
01/01/2023,09:04:14,0.016,0.0,0.006,0.0
01/01/2023,09:05:14,0.018,0.0,0.006,0.0
01/01/2023,09:06:13,0.017,0.0,0.006,0.0
01/01/2023,09:07:13,0.018,0.0,0.007,0.001
01/01/2023,09:08:14,0.019,0.0,0.007,0.0
01/01/2023,09:09:14,0.019,0.0,0.007,0.0
01/01/2023,09:10:14,0.019,0.0,0.008,0.001
01/01/2023,09:11:14,0.020,0.0,0.008,0.0
01/01/2023,09:12:14,0.021,0.0,0.008,0.0
01/01/2023,09:13:13,0.022,0.0,0.009,0.001
01/01/2023,09:14:14,0.021,0.0,0.009,0.0
01/01/2023,09:15:14,0.022,0.0,0.009,0.0
01/01/2023,09:16:14,0.022,0.0,0.01,0.001
01/01/2023,09:17:14,0.023,0.0,0.01,0.0
01/01/2023,09:18:14,0.024,0.0,0.011,0.001
01/01/2023,09:19:14,0.023,0.0,0.011,0.0
01/01/2023,09:20:14,0.025,0.0,0.011,0.0
01/01/2023,09:21:13,0.025,0.0,0.012,0.001
01/01/2023,09:22:14,0.026,0.0,0.012,0.0
01/01/2023,09:23:14,0.026,0.0,0.013,0.001
01/01/2023,09:24:14,0.027,0.0,0.013,0.0
01/01/2023,09:25:14,0.027,0.0,0.013,0.0
01/01/2023,09:26:14,0.028,0.0,0.014,0.001
01/01/2023,09:27:14,0.029,0.0,0.014,0.0
01/01/2023,09:28:14,0.029,0.0,0.015,0.001
01/01/2023,09:29:14,0.030,0.0,0.015,0.0
01/01/2023,09:30:14,0.030,0.0,0.016,0.001
01/01/2023,09:31:14,0.031,0.0,0.016,0.0
01/01/2023,09:32:14,0.031,0.0,0.017,0.001
01/01/2023,09:33:14,0.032,0.0,0.017,0.0
01/01/2023,09:34:14,0.033,0.0,0.018,0.001
01/01/2023,09:35:14,0.033,0.0,0.019,0.001
01/01/2023,09:36:14,0.034,0.0,0.019,0.0
01/01/2023,09:37:14,0.034,0.0,0.02,0.001
01/01/2023,09:38:14,0.035,0.0,0.02,0.0
01/01/2023,09:39:14,0.036,0.0,0.021,0.001
01/01/2023,09:40:14,0.035,0.0,0.021,0.0
01/01/2023,09:41:14,0.036,0.0,0.022,0.001
01/01/2023,09:42:14,0.038,0.0,0.023,0.001
01/01/2023,09:43:14,0.037,0.0,0.023,0.0
01/01/2023,09:44:14,0.039,0.0,0.024,0.001
01/01/2023,09:45:13,0.040,0.0,0.025,0.001
01/01/2023,09:46:13,0.040,0.0,0.025,0.0
01/01/2023,09:47:14,0.041,0.0,0.026,0.001
01/01/2023,09:48:14,0.041,0.0,0.027,0.001
01/01/2023,09:49:14,0.042,0.0,0.027,0.0
01/01/2023,09:50:14,0.043,0.0,0.028,0.001
01/01/2023,09:51:14,0.043,0.0,0.029,0.001
01/01/2023,09:52:14,0.043,0.0,0.029,0.0
01/01/2023,09:53:14,0.043,0.0,0.03,0.001
01/01/2023,09:54:14,0.043,0.0,0.031,0.001
01/01/2023,09:55:14,0.044,0.0,0.032,0.001
01/01/2023,09:56:14,0.045,0.0,0.032,0.0
01/01/2023,09:57:14,0.045,0.0,0.033,0.001
01/01/2023,09:58:14,0.045,0.0,0.034,0.001
01/01/2023,09:59:14,0.045,0.0,0.035,0.001
01/01/2023,10:00:14,0.046,0.0,0.035,0.0
01/01/2023,10:01:14,0.048,0.0,0.036,0.001
01/01/2023,10:02:14,0.048,0.0,0.037,0.001
01/01/2023,10:03:14,0.048,0.0,0.038,0.001
01/01/2023,10:04:14,0.049,0.0,0.038,0.0
01/01/2023,10:05:14,0.049,0.0,0.039,0.001
01/01/2023,10:06:14,0.050,0.0,0.04,0.001
01/01/2023,10:07:14,0.050,0.0,0.041,0.001
01/01/2023,10:08:14,0.051,0.0,0.042,0.001
01/01/2023,10:09:14,0.051,0.0,0.043,0.001
01/01/2023,10:10:14,0.052,0.0,0.043,0.0
01/01/2023,10:11:19,0.052,0.0,0.044,0.001
01/01/2023,10:12:15,0.054,0.0,0.045,0.001
01/01/2023,10:13:14,0.053,0.0,0.046,0.001
01/01/2023,10:14:14,0.052,0.0,0.047,0.001
01/01/2023,10:15:14,0.053,0.0,0.048,0.001
01/01/2023,10:16:15,0.055,0.0,0.049,0.001